GW4692 Weather Reports


time (UTC)temp
C
wind
direction
speed
KPH
gust
KPH
rain 1hr
cm
rain 24hr
cm
rain mn
cm
humidity
%
barometer
mb
20260503053026 11 339 0.0 1.6 0.00 0.00 0.00 77 1011.2
20260503051525 10 339 0.0 0.0 0.00 0.00 0.00 76 1011.1
20260503050024 10 339 0.0 0.0 0.00 0.00 0.00 77 1011.1
20260503044523 9 339 0.0 0.0 0.00 0.00 0.00 77 1011.2
20260503043036 9 339 0.0 0.0 0.00 0.00 0.00 77 1011.2
20260503041524 9 339 0.0 3.2 0.00 0.00 0.00 77 1011.1
20260503040019 9 339 0.0 0.0 0.00 0.00 0.00 77 1011.1
20260503034520 9 339 0.0 3.2 0.00 0.00 0.00 77 1011.1
20260503033021 9 339 1.6 3.2 0.00 0.00 0.00 77 1011.1
20260503031516 10 339 3.2 4.8 0.00 0.00 0.00 76 1011.0
20260503030014 10 339 0.0 3.2 0.00 0.00 0.00 76 1011.1
20260503024523 10 339 0.0 1.6 0.00 0.00 0.00 76 1011.1
20260503023011 10 339 0.0 1.6 0.00 0.00 0.00 76 1011.3
20260503021530 10 339 0.0 4.8 0.00 0.00 0.00 77 1011.3
20260503020010 8 5 1.6 3.2 0.00 0.00 0.00 77 1011.3
20260503014507 8 11 0.0 0.0 0.00 0.00 0.00 77 1011.3
20260503013007 9 11 0.0 1.6 0.00 0.00 0.00 77 1011.3
20260503011605 10 11 0.0 0.0 0.00 0.00 0.00 76 1011.5
20260503011501 10 11 0.0 0.0 0.00 0.00 0.00 76 1011.5
20260503010104 10 10 0.0 3.2 0.00 0.00 0.00 76 1011.5
20260503004607 10 9 3.2 4.8 0.00 0.00 0.00 75 1011.7
20260503003109 11 10 0.0 1.6 0.00 0.00 0.00 74 1011.8
20260503001608 11 10 0.0 1.6 0.00 0.00 0.00 74 1011.9
20260503000051 11 10 3.2 4.8 0.00 0.00 0.00 74 1012.1
20260502234548 10 14 1.6 3.2 0.00 0.00 0.00 75 1012.3
20260502233047 11 14 0.0 1.6 0.00 0.00 0.00 75 1012.3
20260502231543 11 15 0.0 3.2 0.00 0.00 0.00 74 1012.4
20260502230039 11 15 0.0 3.2 0.00 0.00 0.00 72 1012.5
20260502224537 12 32 1.6 3.2 0.00 0.00 0.00 72 1012.5
20260502223036 12 32 0.0 1.6 0.00 0.00 0.00 72 1012.5
20260502221532 11 23 0.0 3.2 0.00 0.00 0.00 72 1012.5
20260502220034 12 23 0.0 1.6 0.00 0.00 0.00 72 1012.5
20260502214528 12 23 0.0 0.0 0.00 0.00 0.00 72 1012.5
20260502213027 12 23 0.0 6.4 0.00 0.00 0.00 71 1012.5
20260502211527 13 26 3.2 4.8 0.00 0.00 0.00 69 1012.5
20260502210026 13 11 0.0 4.8 0.00 0.00 0.00 69 1012.6
20260502204533 13 5 0.0 3.2 0.00 0.00 0.00 68 1012.6
20260502203030 13 25 0.0 0.0 0.00 0.00 0.00 66 1012.6
20260502201526 13 25 0.0 0.0 0.00 0.00 0.00 64 1012.5
20260502200043 14 25 0.0 1.6 0.00 0.00 0.00 63 1012.4
20260502194524 15 47 1.6 4.8 0.00 0.00 0.00 58 1012.3
20260502193024 16 47 1.6 4.8 0.00 0.00 0.00 54 1012.3
20260502191524 17 66 3.2 4.8 0.00 0.00 0.00 52 1012.2
20260502190023 17 66 1.6 3.2 0.00 0.00 0.00 47 1012.3
20260502184524 18 209 0.0 0.0 0.00 0.00 0.00 45 1012.1
20260502183021 18 209 0.0 1.6 0.00 0.00 0.00 41 1012.1
20260502181526 18 209 0.0 1.6 0.00 0.00 0.00 44 1012.0
20260502163019 21 229 3.2 11.3 0.00 0.00 0.00 39 1012.1
20260502161513 21 232 4.8 12.9 0.00 0.00 0.00 38 1012.3
20260502151507 22 273 0.0 11.3 0.00 0.00 0.00 39 1012.8
20260502123040 20 249 6.4 14.5 0.00 0.00 0.00 38 1015.0
20260502121538 20 203 1.6 12.9 0.00 0.00 0.00 37 1015.3
20260502114538 20 290 4.8 11.3 0.00 0.00 0.00 40 1015.6
20260502113036 20 163 3.2 12.9 0.00 0.00 0.00 41 1016.0
20260502111530 20 170 4.8 9.7 0.00 0.00 0.00 40 1016.2
20260502110028 19 275 4.8 9.7 0.00 0.00 0.00 44 1016.4
20260502104526 20 201 6.4 16.1 0.00 0.00 0.00 43 1016.6
20260502103052 18 126 3.2 8.0 0.00 0.00 0.00 42 1016.8
20260502101521 19 178 6.4 14.5 0.00 0.00 0.00 42 1017.1
20260502091508 17 251 1.6 9.7 0.00 0.00 0.00 45 1017.9
20260502080104 17 263 1.6 4.8 0.00 0.00 0.00 51 1018.3
20260502070048 16 51 0.0 1.6 0.00 0.00 0.00 57 1018.5
20260502064544 15 22 0.0 0.0 0.00 0.00 0.00 63 1018.6
20260502063050 13 18 0.0 1.6 0.00 0.00 0.00 69 1018.6
20260502061536 12 18 0.0 4.8 0.00 0.00 0.00 72 1018.5
20260502060033 12 23 3.2 9.7 0.00 0.00 0.00 74 1018.4
20260502054538 11 30 1.6 9.7 0.00 0.00 0.00 76 1018.5